HST 1 20580U 90037B 26120.93332367 .00007708 00000+0 24837-3 0 9999 2 20580 28.4760 43.3958 0001811 346.7350 13.3198 15.30220469781323 POLAR 1 23802U 96013A 26118.74260267 .00000005 00000+0 00000+0 0 9999 2 23802 79.8054 227.6254 6420817 210.7729 86.8948 1.29845833144212 SWAS 1 25560U 98071A 26120.83277681 .00004155 00000+0 26644-3 0 9995 2 25560 69.8976 349.6077 0007530 305.5973 54.4489 15.09293916490123 CXO 1 25867U 99040B 26121.77434247 .00000574 00000+0 00000+0 0 9994 2 25867 55.4326 117.9802 7910128 310.5568 359.9255 0.37807064 17145 XMM-NEWTON 1 25989U 99066A 26119.48249831 -.00000021 00000+0 00000+0 0 9993 2 25989 64.7331 283.6064 4688678 65.7859 0.1035 0.50130503 22768 TERRA 1 25994U 99068A 26120.90931712 .00000408 00000+0 92066-4 0 9992 2 25994 97.9496 172.3214 0002956 46.3934 58.4513 14.61064612402706 CLUSTER II-FM7 (SAMBA) 1 26410U 00041A 26119.05025564 .00002271 00000+0 00000+0 0 9994 2 26410 149.6805 42.4302 8992946 259.0060 0.6082 0.44823564 20095 CLUSTER II-FM8 (TANGO) 1 26464U 00045B 26121.13459255 .00002884 00000+0 00000+0 0 9997 2 26464 149.9674 43.7125 9000108 260.1784 0.5507 0.44400441 20080 ODIN 1 26702U 01007A 26120.64375119 .00060682 00000+0 64793-3 0 9995 2 26702 97.3958 158.9900 0001214 18.1039 342.0262 15.63741203381948 TIMED 1 26998U 01055B 26120.97210571 .00001208 00000+0 11350-3 0 9991 2 26998 74.0679 330.0804 0001533 204.7745 155.3366 14.95179584323761 CORIOLIS 1 27640U 03001A 26120.98543863 .00000120 00000+0 77140-4 0 9995 2 27640 98.7141 128.5889 0013826 353.9612 6.1395 14.19931453207521 SORCE 1 27651U 03004A 26120.58295115 .00002918 00000+0 22095-3 0 9995 2 27651 39.9895 173.2217 0016038 68.8597 291.3909 15.03449681264736 MOST 1 27843U 03031D 26120.97494075 .00000075 00000+0 54569-4 0 9991 2 27843 98.7059 129.3576 0010472 34.5203 325.6652 14.21312447184009 SCISAT 1 1 27858U 03036A 26120.88654324 .00000763 00000+0 10226-3 0 9992 2 27858 73.9292 265.3168 0007783 331.5566 28.5185 14.81394038224445 SWIFT 1 28485U 04047A 26120.54020330 .00045967 00000+0 45514-3 0 9992 2 28485 20.5521 191.1768 0002290 31.1295 328.9285 15.63993390179384 HINODE (SOLAR-B) 1 29479U 06041A 26120.96889425 .00000797 00000+0 14546-3 0 9999 2 29479 98.0573 137.8150 0018925 79.1584 281.1750 14.68553559 47948 SHIJIAN-6 02A (SJ-6 02A) 1 29505U 06046A 26120.98449889 .00005325 00000+0 27770-3 0 9997 2 29505 97.6405 161.7061 0001847 328.9390 31.1733 15.16395325 65111 SHIJIAN-6 02B (SJ-6 02B) 1 29506U 06046B 26120.95803029 .00001564 00000+0 12643-3 0 9999 2 29506 97.7142 150.3122 0010956 221.2749 138.7648 15.01232380 63658 FGRST (GLAST) 1 33053U 08029A 26120.49070719 .00003341 00000+0 12160-3 0 9994 2 33053 25.5808 175.5938 0008666 122.4283 237.7094 15.23687897988553 SDO 1 36395U 10005A 26120.41395799 -.00000057 00000+0 00000+0 0 9991 2 36395 34.5547 87.0614 0001055 28.2871 150.2475 1.00272940 59587 CRYOSAT 2 1 36508U 10013A 26120.94013514 .00000242 00000+0 59348-4 0 9995 2 36508 92.0295 265.8324 0002670 91.3586 268.7927 14.51907435851226 X-SAT 1 37389U 11015C 26120.90684985 .00000354 00000+0 16808-3 0 9995 2 37389 98.3482 100.1908 0015009 118.7835 241.4855 14.25192582780949 GCOM-W1 (SHIZUKU) 1 38337U 12025A 26120.85752006 .00000523 00000+0 12598-3 0 9995 2 38337 98.1999 62.1381 0001334 94.2562 331.5737 14.57124864742140 NUSTAR 1 38358U 12031A 26121.00002315 .00009153 00000+0 51796-3 0 9995 2 38358 6.0269 27.9499 0007400 132.4644 29.2176 15.08347331 5183 NEOSSAT 1 39089U 13009D 26120.96182764 .00000168 00000+0 72774-4 0 9991 2 39089 98.4168 302.1196 0011610 32.8843 327.3064 14.35809782689966 BRITE-AUSTRIA 1 39091U 13009F 26120.49633205 .00000190 00000+0 79299-4 0 9997 2 39091 98.3984 301.1149 0010704 28.9627 331.2151 14.36522493690202 IRIS 1 39197U 13033A 26120.62048612 .00001177 00000+0 14099-3 0 9990 2 39197 97.9364 320.0420 0025764 113.3610 247.0319 14.85784796693316 HISAKI (SPRINT-A) 1 39253U 13049A 26120.99341830 .00000137 00000+0 99481-4 0 9992 2 39253 29.7192 99.9423 0136598 354.2808 5.6206 13.55538607625018 CASSIOPE 1 39265U 13055A 26120.93371627 .00028809 -41447-6 33414-3 0 9990 2 39265 80.9125 123.9447 0302683 220.9059 136.9111 15.21988155660471 STSAT-3 1 39422U 13066G 26120.96495507 .00003727 00000+0 28509-3 0 9997 2 39422 97.6180 91.6493 0009365 175.7598 184.3708 15.02478924677115 SWARM B 1 39451U 13067A 26120.92759356 .00003571 00000+0 12849-3 0 9998 2 39451 87.7475 356.6689 0002434 95.7154 264.4373 15.28272039676028 SWARM A 1 39452U 13067B 26120.90966603 .00013130 00000+0 23390-3 0 9997 2 39452 87.3317 73.7852 0003655 89.1583 271.0096 15.49967259698925 SWARM C 1 39453U 13067C 26120.90960105 .00013406 00000+0 23881-3 0 9990 2 39453 87.3318 72.3665 0003656 88.9200 271.2479 15.49968967698887 BRITE-CA1 (TORONTO) 1 40020U 14033L 26120.88346843 .00001018 00000+0 16002-3 0 9993 2 40020 97.9666 250.7048 0079958 68.8283 292.1446 14.72607734635250 OCO 2 1 40059U 14035A 26120.91014121 .00000464 00000+0 11294-3 0 9994 2 40059 98.1996 62.9321 0001592 77.6253 282.5124 14.57150332629161 BRITE-PL2 (HEWELIUSZ) 1 40119U 14049B 26120.83633415 .00002132 00000+0 20314-3 0 9997 2 40119 97.9037 232.4922 0012759 265.8267 94.1495 14.94412874634375 MMS 1 1 40482U 15011A 26121.00002315 -.00000453 00000+0 00000+0 0 9990 2 40482 71.5135 349.4389 8363247 166.3779 165.1035 0.28352293 1369 MMS 2 1 40483U 15011B 26121.00002315 -.00000453 00000+0 00000+0 0 9991 2 40483 71.5189 349.4452 8363431 166.3785 165.0905 0.28352728 1360 MMS 3 1 40484U 15011C 26121.00002315 -.00000453 00000+0 00000+0 0 9992 2 40484 71.5189 349.4452 8363431 166.3785 165.0905 0.28352728 1361 MMS 4 1 40485U 15011D 26121.00002315 -.00000453 00000+0 00000+0 0 9993 2 40485 71.5134 349.4412 8362791 166.3857 165.0790 0.28352256 1364 ASTROSAT 1 40930U 15052A 26118.24030020 .00001821 00000+0 14027-3 0 9996 2 40930 5.9957 154.8367 0007584 39.2274 320.8403 14.82417667572402 DAMPE 1 41173U 15078A 26120.97070574 .00001105 00000+0 39863-4 0 9996 2 41173 97.4567 126.2084 0010352 240.6922 119.3285 15.30664359577320 PISAT 1 41784U 16059B 26120.93863253 .00001108 00000+0 19644-3 0 9991 2 41784 97.8184 123.4246 0029003 359.6307 0.4873 14.68897208512803 HXMT (HUIYAN) 1 42758U 17034A 26120.96401985 .00005272 00000+0 26246-3 0 9992 2 42758 43.0137 85.9011 0032191 207.8415 152.0711 15.18038749490481 FLYING LAPTOP 1 42831U 17042G 26120.98679128 .00002545 00000+0 20411-3 0 9999 2 42831 97.4471 278.4072 0017871 285.6443 74.2810 15.00839870479371 ZHANGHENG 1-01 (CSES-1) 1 43194U 18015C 26120.96358715 .00008519 00000+0 38868-3 0 9999 2 43194 97.6829 285.6926 0017775 70.1328 290.1821 15.20737324457463 SALSAT 1 46495U 20068K 26120.97394616 .00009136 00000+0 32572-3 0 9990 2 46495 97.8854 121.1916 0011671 106.1690 254.0834 15.29093123308148 IXPE 1 49954U 21121A 26121.00002315 .00012863 00000+0 71608-3 0 9995 2 49954 0.2317 314.1646 0007040 87.7463 40.6733 15.09806048 5545